Flag for U.S.A. Weather past 2 weeks in Tuba City, Arizona, U.S.A.

Now
33 °F

Overcast.


Feels Like: 33 °F
Forecast: 33 / 50 °F
Wind: No wind

Location: Grand Canyon National Park Airport

Current Time: Feb 27, 2015 at 11:09:06 PM

Latest Report: Feb 27, 2015 at 9:54 PM


Visibility: 10 mi

Pressure: 29.69 "Hg

Humidity: 92%

Dew point: 31 °F

Location of Tuba CityLocation

Historic Weather in Tuba City — Graph

°F

Tuba City temperature yesterday

Maximum temperature yesterday: 47 °F (at 3:54 PM)
Minimum temperature yesterday: 22 °F (at 3:54 AM)
Average temperature yesterday: 33 °F

Past Weeks' High & Low Weather Summary

 TemperatureHumidityPressure
High66 °F (Feb 14, 2:54 PM)100% (Feb 22, 6:54 PM)30.37 "Hg (Feb 22, 6:54 PM)
Low9 °F (Feb 17, 6:54 AM)9% (Feb 16, 4:54 PM)29.67 "Hg (Feb 22, 4:54 AM)
Average35 °F60%30.04 "Hg
* Reported Feb 12 9:54 PM — Feb 27 9:54 PM, Tuba City, Weather by CustomWeather, © 2015

Note: Actual official high and low records may vary slightly from our data, if they occured in-between our weather recording intervals... More about our weather records

Advertising

Tuba City weather history for previous 24 hours

 ConditionsComfort  
Time TempWeatherWind HumidityBarometerVisibility
9:54 PM
Fri, Feb 27
33 °FOvercast.No wind92%29.69 "Hg10 mi
8:54 PM33 °FMostly cloudy.No wind92%29.68 "Hg10 mi
7:54 PM34 °FOvercast.No wind88%29.69 "Hg10 mi
6:54 PM34 °FOvercast.5 mph92%29.71 "Hg10 mi
6:03 PM34 °FLight snow. Fog.3 mph88%29.72 "Hg2 mi
5:57 PM34 °FLight snow. Fog.3 mph88%29.72 "Hg1 mi
4:54 PM38 °FMostly cloudy.8 mph70%29.70 "Hg9 mi
3:54 PM39 °FMostly cloudy.6 mph70%29.71 "Hg10 mi
2:54 PM40 °FMostly cloudy.8 mph60%29.70 "Hg10 mi
1:54 PM41 °FMostly cloudy.15 mph60%29.73 "Hg10 mi
12:54 PM36 °FCloudy.3 mph75%29.79 "Hg10 mi
11:54 AM35 °FMostly cloudy.3 mph78%29.83 "Hg10 mi
10:54 AM31 °FLight snow. Ice fog.3 mph89%29.85 "Hg2 mi
9:54 AM35 °FOvercast.No wind64%29.83 "Hg9 mi
8:54 AM34 °FOvercast.6 mph70%29.81 "Hg10 mi
7:54 AM29 °FMostly cloudy.No wind85%29.82 "Hg10 mi
6:54 AM25 °FPassing clouds.No wind92%29.79 "Hg10 mi
5:54 AM24 °FClear.No wind91%29.77 "Hg10 mi
4:54 AM23 °FPartly cloudy.No wind88%29.77 "Hg10 mi
3:54 AM21 °FPassing clouds.No wind92%29.79 "Hg10 mi
2:54 AM23 °FOvercast.No wind85%29.80 "Hg10 mi
1:54 AM21 °FPassing clouds.No wind92%29.83 "Hg10 mi
12:54 AM22 °FPassing clouds.No wind89%29.82 "Hg10 mi
11:54 PM
Thu, Feb 26
22 °FClear.No wind89%29.85 "Hg10 mi
Weather by CustomWeather, © 2015

See weather overviewHow to use our weather pages